Houston / Southwest Airport, TX

5:32 PM CDT on May 28, 2017 (GMT -0500)
Houston-Southwest

Weather History for KAXH - November, 2012

Change the Weather History Date:

Monday, November 26, 2012

  Actual Average (KHOU) Record (KHOU)
Temperature  
Mean Temperature 68 °F -  
Max Temperature 83 °F 67 °F 86 °F (1967)
Min Temperature 54 °F 49 °F 27 °F (1975)
Cooling Degree Days 4    
Growing Degree Days 18 (Base 50)    
Moisture  
Dew Point 63 °F    
Average Humidity 85    
Maximum Humidity 100    
Minimum Humidity 48    
Precipitation  
Precipitation 0.00 in - - ()
Sea Level Pressure  
Sea Level Pressure 30.00 in    
Wind  
Wind Speed 2 mph (SSW)    
Max Wind Speed 13 mph    
Max Gust Speed 22 mph    
Visibility 6 miles    
Events Fog    
Averages and records for this station are not official NWS values.
T = Trace of Precipitation, MM = Missing Value Source: NWS Daily Summary

Daily Weather History Graph

Daily Weather History Graph

Search for Another Location

Airport or City:

Trip Planner

Search our weather history database for the weather conditions in past years. The results will help you decide how hot, cold, wet, or windy it might be!

Date:

Astronomy

Nov. 26, 2012 Rise Set
Actual Time 6:55 AM CST 5:23 PM CST
Civil Twilight 6:29 AM CST 5:48 PM CST
Nautical Twilight 6:00 AM CST 6:18 PM CST
Astronomical Twilight 5:31 AM CST 6:46 PM CST
Moon 4:12 PM CST (11/26) 5:11 AM CST (11/26)
Length of Visible Light 11h 18m
Length of Day
10h 27m
Waxing Gibbous, 97% of the Moon is Illuminated
Nov 26
Waxing Gibbous
Nov 28
Full
Dec 6
Last Quarter
Dec 13
New
Dec 19
First Quarter

Hourly Weather History & Observations

Time (CST) Temp. Heat Index Dew Point Humidity Pressure Visibility Wind Dir Wind Speed Gust Speed Precip Events Conditions
12:15 AM 60.4 °F - 60.1 °F 99% 29.98 in 0.5 mi Calm Calm - N/A Fog Fog
12:35 AM 59.5 °F - 59.2 °F 99% 29.97 in 0.2 mi Calm Calm - N/A Fog Fog
12:55 AM 59.2 °F - 59.0 °F 99% 29.97 in 0.2 mi Calm Calm - N/A Fog Fog
1:15 AM 58.3 °F - 58.1 °F 99% 29.97 in 0.2 mi Calm Calm - N/A Fog Fog
1:35 AM 57.6 °F - 57.4 °F 99% 29.96 in 0.2 mi Calm Calm - N/A Fog Fog
1:55 AM 57.6 °F - 57.4 °F 99% 29.96 in 0.2 mi Calm Calm - N/A Fog Fog
2:15 AM 58.5 °F - 58.3 °F 99% 29.96 in 0.2 mi Calm Calm - N/A Fog Fog
2:35 AM 58.8 °F - 58.8 °F 100% 29.96 in 0.2 mi Calm Calm - N/A Fog Fog
2:55 AM 59.0 °F - 58.8 °F 99% 29.96 in 0.2 mi Calm Calm - N/A Fog Fog
3:15 AM 59.4 °F - 59.2 °F 99% 29.96 in 0.2 mi Calm Calm - N/A Fog Fog
3:35 AM 57.9 °F - 57.7 °F 99% 29.96 in 0.2 mi Calm Calm - N/A Fog Fog
3:55 AM 58.5 °F - 58.3 °F 99% 29.96 in 0.2 mi Calm Calm - N/A Fog Fog
4:15 AM 57.7 °F - 57.6 °F 99% 29.96 in 0.2 mi Calm Calm - N/A Fog Fog
4:35 AM 55.4 °F - 55.4 °F 100% 29.96 in 0.2 mi Calm Calm - N/A Fog Fog
4:55 AM 57.2 °F - 57.0 °F 99% 29.96 in 0.2 mi Calm Calm - N/A Fog Fog
5:15 AM 54.5 °F - 54.5 °F 100% 29.96 in 0.2 mi SSE 3.5 mph - N/A Fog Fog
5:35 AM 56.1 °F - 55.9 °F 99% 29.97 in 0.2 mi Calm Calm - N/A Fog Fog
5:55 AM 56.3 °F - 55.9 °F 99% 29.98 in 0.2 mi Calm Calm - N/A Fog Fog
6:15 AM 56.3 °F - 56.1 °F 99% 29.98 in 0.2 mi Calm Calm - N/A Fog Fog
6:35 AM 56.3 °F - 56.1 °F 99% 29.99 in 0.2 mi Calm Calm - N/A Fog Fog
6:55 AM 55.8 °F - 55.6 °F 99% 29.99 in 0.2 mi Calm Calm - N/A Fog Fog
7:15 AM 55.4 °F - 55.4 °F 100% 30.00 in 0.2 mi Calm Calm - N/A Fog Fog
7:35 AM 57.4 °F - 57.0 °F 99% 30.01 in 0.2 mi Calm Calm - N/A Fog Fog
7:55 AM 59.9 °F - 59.7 °F 99% 30.01 in 0.2 mi Calm Calm - N/A Fog Fog
8:15 AM 61.7 °F - 61.5 °F 99% 30.02 in 0.2 mi Calm Calm - N/A Fog Fog
8:35 AM 64.6 °F - 64.4 °F 99% 30.03 in 0.2 mi Calm Calm - N/A Fog Fog
8:55 AM 66.2 °F - 66.0 °F 99% 30.03 in 0.2 mi Calm Calm - N/A Fog Fog
9:15 AM 67.6 °F - 67.3 °F 99% 30.03 in 10.0 mi Calm Calm - N/A   Overcast
9:35 AM 69.1 °F - 68.9 °F 99% 30.04 in 10.0 mi SSW 5.8 mph - N/A   Overcast
9:55 AM 71.8 °F - 71.6 °F 99% 30.03 in 10.0 mi SSW 5.8 mph - N/A   Overcast
10:15 AM 74.1 °F - 69.8 °F 86% 30.03 in 10.0 mi SSW 9.2 mph - N/A   Overcast
10:35 AM 78.3 °F - 67.6 °F 70% 30.03 in 10.0 mi SW 12.7 mph 18.4 mph N/A   Overcast
10:55 AM 77.5 °F - 66.4 °F 68% 30.03 in 10.0 mi SSW 11.5 mph 21.9 mph N/A   Mostly Cloudy
11:15 AM 80.6 °F 82.7 °F 66.2 °F 61% 30.02 in 10.0 mi SSW 12.7 mph 20.7 mph N/A   Scattered Clouds
11:35 AM 79.5 °F - 65.5 °F 62% 30.01 in 10.0 mi SW 9.2 mph 18.4 mph N/A   Scattered Clouds
11:55 AM 80.6 °F 82.2 °F 63.9 °F 57% 30.00 in 10.0 mi SW 9.2 mph 20.7 mph N/A   Mostly Cloudy
12:15 PM 80.2 °F 81.8 °F 63.7 °F 57% 29.99 in 10.0 mi SW 8.1 mph - N/A   Scattered Clouds
12:35 PM 83.3 °F 84.4 °F 63.3 °F 51% 29.98 in 10.0 mi SW 10.4 mph 18.4 mph N/A   Mostly Cloudy
12:55 PM 83.8 °F 84.7 °F 62.8 °F 49% 29.97 in 10.0 mi SW 9.2 mph 18.4 mph N/A   Scattered Clouds
1:15 PM 83.5 °F 84.1 °F 61.7 °F 48% 29.97 in 10.0 mi SSW 10.4 mph 20.7 mph N/A   Mostly Cloudy
1:35 PM 82.6 °F 83.4 °F 62.2 °F 50% 29.96 in 10.0 mi SW 10.4 mph 17.3 mph N/A   Mostly Cloudy
1:55 PM 83.5 °F 84.3 °F 62.6 °F 49% 29.96 in 10.0 mi SW 6.9 mph 17.3 mph N/A   Scattered Clouds
2:15 PM 81.9 °F 82.9 °F 62.6 °F 52% 29.96 in 10.0 mi SW 9.2 mph 17.3 mph N/A   Mostly Cloudy
2:35 PM 81.5 °F 82.8 °F 63.3 °F 54% 29.95 in 10.0 mi SSW 11.5 mph 18.4 mph N/A   Mostly Cloudy
2:55 PM 81.9 °F 83.4 °F 64.0 °F 55% 29.95 in 10.0 mi SSW 11.5 mph 18.4 mph N/A   Mostly Cloudy
3:15 PM 81.1 °F 82.7 °F 64.2 °F 56% 29.96 in 10.0 mi South 10.4 mph 16.1 mph N/A   Mostly Cloudy
3:35 PM 80.1 °F 82.0 °F 65.3 °F 61% 29.96 in 10.0 mi South 8.1 mph - N/A   Overcast
3:55 PM 79.0 °F - 65.3 °F 63% 29.96 in 10.0 mi SSW 10.4 mph 17.3 mph N/A   Mostly Cloudy
4:15 PM 78.1 °F - 65.3 °F 65% 29.96 in 10.0 mi SSW 9.2 mph - N/A   Mostly Cloudy
4:35 PM 77.4 °F - 65.3 °F 66% 29.97 in 10.0 mi SSW 8.1 mph - N/A   Scattered Clouds
4:55 PM 77.0 °F - 65.3 °F 67% 29.97 in 10.0 mi South 6.9 mph - N/A   Scattered Clouds
5:15 PM 76.1 °F - 65.3 °F 69% 29.98 in 10.0 mi SSW 4.6 mph - N/A   Clear
5:35 PM 74.8 °F - 65.3 °F 72% 29.99 in 10.0 mi SW 3.5 mph - N/A   Clear
5:55 PM 73.6 °F - 65.3 °F 75% 30.00 in 10.0 mi SSW 6.9 mph - N/A   Clear
6:15 PM 73.4 °F - 65.3 °F 76% 30.00 in 10.0 mi SSW 4.6 mph - N/A   Clear
6:35 PM 72.3 °F - 65.3 °F 78% 30.01 in 10.0 mi SSW 3.5 mph - N/A   Clear
6:55 PM 70.5 °F - 64.8 °F 82% 30.01 in 10.0 mi South 3.5 mph - N/A   Clear
7:15 PM 69.3 °F - 64.8 °F 86% 30.02 in 10.0 mi Calm Calm - N/A   Clear
7:35 PM 67.3 °F - 64.6 °F 91% 30.03 in 10.0 mi SSE 3.5 mph - N/A   Clear
7:55 PM 66.9 °F - 64.9 °F 93% 30.03 in 10.0 mi South 3.5 mph - N/A   Clear
8:15 PM 66.4 °F - 64.9 °F 95% 30.03 in 10.0 mi Calm Calm - N/A   Clear
8:35 PM 66.2 °F - 64.8 °F 95% 30.04 in 10.0 mi Calm Calm - N/A   Clear
8:55 PM 65.8 °F - 64.6 °F 96% 30.04 in 10.0 mi South 3.5 mph - N/A   Clear
9:15 PM 66.7 °F - 65.3 °F 95% 30.05 in 10.0 mi SW 3.5 mph - N/A   Clear
9:35 PM 66.7 °F - 65.3 °F 95% 30.06 in 10.0 mi Calm Calm - N/A   Clear
9:55 PM 65.8 °F - 64.9 °F 97% 30.07 in 7.0 mi Calm Calm - N/A   Scattered Clouds
10:15 PM 65.5 °F - 64.6 °F 97% 30.07 in 7.0 mi Calm Calm - N/A   Mostly Cloudy
10:35 PM 66.2 °F - 65.5 °F 98% 30.07 in 7.0 mi Calm Calm - N/A   Overcast
10:55 PM 65.7 °F - 64.8 °F 97% 30.08 in 7.0 mi Calm Calm - N/A   Overcast
11:15 PM 66.7 °F - 66.0 °F 98% 30.08 in 7.0 mi Calm Calm - N/A   Overcast
11:35 PM 66.9 °F - 65.7 °F 96% 30.08 in 10.0 mi Calm Calm - N/A   Overcast
11:55 PM 68.0 °F - 66.7 °F 96% 30.07 in 7.0 mi Calm Calm - N/A   Overcast